Location: ????????
(55.0559°N, 39.1270°E)
Time: 17:07:03
(UTC+00:00)

Cosmos 1741 Rocket - Pass Details

Date: 15 November 2025
Orbit: 756 x 778 km, 74.0° (Epoch: 14 December)

Event Time Altitude Azimuth Distance (km) Brightness Sun altitude
Exits shadow 02:26:53 16° 337° (NNW) 1,963 5.9 -20.9°
Maximum altitude 02:31:12 70° 60° (ENE) 831 4.3 -20.3°
Drops below altitude 10° 02:36:29 10° 144° (SE) 2,328 7.0 -19.6°
Sets 02:38:52 0° 147° (SSE) 3,250 7.8 -19.2°
